Inquirer Daily News

Weather

Get conditions and forecasts for any City, State, ZIP code or Country:  
Northeast Philadelphia, PA
on Monday, February 11, 2013

Monday
Previous Day Next Day
Daily Summary
 ActualAverage (KTTN)Record (KTTN)
Temperature
Mean Temperature °F 33°F  
Max Temperature 51°F 41°F 68°F (2009)
Min Temperature 30°F 25°F -9°F (1899)
Degree Days
Heating Degree Days 24 32  
Month to date heating degree days 358  
Since 1 July heating degree days 3304  
Cooling Degree Days 0 0  
Month to date cooling degree days 0  
Year to date cooling degree days 0  
Moisture
Dew Point 38°F   
Average Humidity 93    
Maximum Humidity 100    
Minimum Humidity 72    
Precipitation
Precipitation 0.40 in 0.09 in 1.60 in (1983)
Month to date precipitation 0.82  
Year to date precipitation 3.98  
Wind
Wind Speed 5 mph   
Max Wind Speed 17 mph   
Max Gust Speed 26 mph   
Visibility 4 miles   
Events Fog , Rain   

Key: T is trace of precipitation, MM is missing value
Source: NWS Daily Summary
Time(EST)TemperatureDew PointHumidity Pressure Visibility Wind DirectionWind SpeedGust SpeedPrecipitationEvents Conditions
12:54 AM 30.9°F 23.0°F 72% 30.31 in 10.0 miles East 5.8 mph - N/A   Clear
1:54 AM 32.0°F 24.1°F 73% 30.29 in 10.0 miles East 3.5 mph - N/A   Scattered Clouds
2:54 AM 33.1°F 26.1°F 75% 30.25 in 10.0 miles East 3.5 mph - N/A   Overcast
3:54 AM 33.1°F 27.0°F 78% 30.22 in 10.0 miles East 3.5 mph - 0.00 in Rain Light Rain
4:54 AM 33.1°F 30.0°F 89% 30.19 in 7.0 miles Calm Calm - 0.01 in Rain Light Rain
5:02 AM 33.8°F 30.2°F 87% 30.17 in 7.0 miles East 4.6 mph - 0.01 in Rain Light Rain
5:15 AM 33.8°F 30.2°F 87% 30.16 in 6.0 miles East 3.5 mph - 0.01 in Rain Light Rain
5:54 AM 33.1°F 32.0°F 96% 30.14 in 5.0 miles ENE 4.6 mph - 0.04 in Rain Rain
6:21 AM 33.8°F 32.0°F 93% 30.09 in 3.0 miles NE 6.9 mph - 0.06 in Rain Light Rain
6:45 AM 33.8°F 32.0°F 93% 30.08 in 3.0 miles NE 3.5 mph - 0.09 in Rain Rain
6:54 AM 33.1°F 32.0°F 96% 30.08 in 3.0 miles NE 4.6 mph - 0.10 in Rain Rain
7:13 AM 33.8°F 33.8°F 100% 30.06 in 2.5 miles NE 4.6 mph - 0.03 in Rain Light Rain
7:54 AM 35.1°F 35.1°F 100% 30.05 in 1.8 miles NNW 3.5 mph - 0.09 in Rain Light Rain
8:50 AM 35.6°F 35.6°F 100% 30.04 in 2.0 miles NW 6.9 mph - 0.08 in Rain Light Rain
8:54 AM 35.1°F 35.1°F 100% 30.04 in 2.0 miles NW 5.8 mph - 0.08 in Rain Light Rain
9:23 AM 35.6°F 35.6°F 100% 30.02 in 3.0 miles Calm Calm - 0.02 in Rain Light Rain
9:41 AM 35.6°F 35.6°F 100% 30.01 in 1.8 miles Calm Calm - 0.02 in   Overcast
9:54 AM 36.0°F 35.1°F 97% 30.00 in 1.0 miles Calm Calm - 0.02 in   Overcast
10:13 AM 35.6°F 35.6°F 100% 30.00 in 1.2 miles Calm Calm - 0.01 in   Overcast
10:54 AM 37.0°F 36.0°F 96% 29.98 in 1.0 miles Calm Calm - 0.01 in   Overcast
11:03 AM 37.4°F 35.6°F 93% 29.97 in 0.8 miles Calm Calm - N/A   Overcast
11:54 AM 37.9°F 37.0°F 97% 29.94 in 0.8 miles Calm Calm - 0.01 in   Overcast
12:54 PM 42.1°F 41.0°F 96% 29.87 in 0.2 miles SSW 5.8 mph - N/A Fog Fog
1:52 PM 42.8°F 42.8°F 100% 29.83 in 1.0 miles SW 8.1 mph - N/A   Overcast
1:54 PM 43.0°F 43.0°F 100% 29.83 in 1.0 miles SW 6.9 mph - N/A   Overcast
2:15 PM 44.6°F 42.8°F 93% 29.82 in 0.8 miles SW 6.9 mph - N/A   Overcast
2:54 PM 45.0°F 44.1°F 97% 29.80 in 0.5 miles SW 6.9 mph - N/A Fog Fog
3:54 PM 45.0°F 45.0°F 100% 29.76 in 0.5 miles SW 4.6 mph - 0.01 in Fog Fog
4:37 PM 46.4°F 46.4°F 100% 29.74 in 1.0 miles SW 6.9 mph - N/A   Overcast
4:54 PM 46.9°F 46.9°F 100% 29.74 in 1.0 miles SW 8.1 mph - N/A   Overcast
5:54 PM 48.9°F 48.0°F 97% 29.72 in 1.0 miles SW 12.7 mph - 0.01 in   Overcast
6:01 PM 48.2°F 48.2°F 100% 29.71 in 4.0 miles SW 13.8 mph 21.9 mph N/A   Overcast
6:54 PM 50.0°F 48.9°F 96% 29.69 in 6.0 miles SW 10.4 mph 19.6 mph 0.01 in   Overcast
7:54 PM 51.1°F 48.9°F 92% 29.69 in 8.0 miles WSW 10.4 mph 19.6 mph 0.01 in   Overcast
8:33 PM 51.8°F 48.2°F 88% 29.68 in 8.0 miles SW 13.8 mph - N/A   Scattered Clouds
8:54 PM 50.0°F 48.0°F 93% 29.69 in 9.0 miles West 9.2 mph - N/A   Clear
9:54 PM 48.0°F 46.9°F 96% 29.73 in 8.0 miles WNW 9.2 mph - N/A   Partly Cloudy
10:19 PM 50.0°F 46.4°F 87% 29.74 in 10.0 miles WNW 12.7 mph - N/A   Overcast
10:35 PM 48.2°F 44.6°F 87% 29.75 in 10.0 miles NW 17.3 mph 26.5 mph N/A   Mostly Cloudy
10:54 PM 46.4°F 41.0°F 81% 29.76 in 10.0 miles NW 10.4 mph 18.4 mph N/A   Partly Cloudy
11:54 PM 45.0°F 37.9°F 76% 29.79 in 10.0 miles NW 8.1 mph - N/A   Clear
Astronomy
Sunrise:06:57 AM (EST) Moon Rise:07:20 AM (EST)2/11
Sunset:05:31 PM (EST) Moon Set:07:25 PM (EST)2/11
Moon Phase
Feb. 11 Feb. 17 Feb. 25 Mar. 04 Mar. 11

Copyright © 2014 The Weather Underground, Inc.